{"data":{"norad_id":48010,"epoch":"2026-09-19T05:56:35.782368Z","epoch_age_seconds":138043,"freshness":"FRESH","line1":"1 48010U 21024AK  26262.24763637  .00001662  00000+0  65279-4 0  9995","line2":"2 48010  53.1600 151.8892 0001400  96.5634 263.5527 15.31723018304224","mean_motion":15.31723018,"eccentricity":0.00014,"inclination_deg":53.16,"raan_deg":151.8892,"arg_perigee_deg":96.5634,"mean_anomaly_deg":263.5527,"bstar":6.5279e-5,"rev_number":30422,"period_min":94.011775175922,"perigee_km":469.71254745139,"apogee_km":471.63021379796,"semimajor_km":6848.8083806247,"source":"CELESTRAK","updated_at":"2026-09-20T09:00:38.759961Z"}}